Orbital elements of COSMOS 2251 DEB
| Launched | 15 June 1993 |
| Flight ended | – |
| Launch site | Plesetsk Missile and Space Complex, Russia |
| Owner | Commonwealth of Independent States (former USSR) |
| NORAD ID | 35645 |
| Date fetched |
Epoch osculation |
Inc. [°] |
Ecc. | RA asc node [hr] |
Arg Peri. [°] |
Mean anom [°] |
Mean motion [rev/day] |
Abs. mag |
| Date fetched |
Epoch osculation |
Inc. [°] |
Ecc. | RA asc node [hr] |
Arg Peri. [°] |
Mean anom [°] |
Mean motion [rev/day] |
Abs. mag |
| 2026 May 04 17:57 | 2026 Apr 29 21:24:45 | 73.9633 | 0.00696 | 12.5737 | 312.4770 | 47.0521 | 14.47182 | – |
| 2026 May 03 17:57 | 2026 Apr 29 21:24:45 | 73.9633 | 0.00696 | 12.5737 | 312.4770 | 47.0521 | 14.47182 | – |
| 2026 May 02 17:57 | 2026 Apr 29 21:24:45 | 73.9633 | 0.00696 | 12.5737 | 312.4770 | 47.0521 | 14.47182 | – |
| 2026 May 01 17:56 | 2026 Apr 29 21:24:45 | 73.9633 | 0.00696 | 12.5737 | 312.4770 | 47.0521 | 14.47182 | – |
| 2026 Apr 30 17:56 | 2026 Apr 29 21:24:45 | 73.9633 | 0.00696 | 12.5737 | 312.4770 | 47.0521 | 14.47182 | – |
| 2026 Apr 29 17:57 | 2026 Apr 22 23:30:14 | 73.9632 | 0.00690 | 13.4390 | 327.2772 | 47.0521 | 14.47182 | – |
| 2026 Apr 28 17:56 | 2026 Apr 22 23:30:14 | 73.9632 | 0.00690 | 13.4390 | 327.2772 | 47.0521 | 14.47182 | – |
| 2026 Apr 27 17:58 | 2026 Apr 22 23:30:14 | 73.9632 | 0.00690 | 13.4390 | 327.2772 | 47.0521 | 14.47182 | – |
| 2026 Apr 26 17:58 | 2026 Apr 22 23:30:14 | 73.9632 | 0.00690 | 13.4390 | 327.2772 | 47.0521 | 14.47182 | – |
| 2026 Apr 25 17:58 | 2026 Apr 22 23:30:14 | 73.9632 | 0.00690 | 13.4390 | 327.2772 | 47.0521 | 14.47182 | – |
| 2026 Apr 24 17:59 | 2026 Apr 22 23:30:14 | 73.9632 | 0.00690 | 13.4390 | 327.2772 | 47.0521 | 14.47182 | – |
| 2026 Apr 23 17:57 | 2026 Apr 19 05:54:40 | 73.9632 | 0.00688 | 13.9062 | 335.3238 | 47.0521 | 14.47182 | – |
| 2026 Apr 22 17:57 | 2026 Apr 19 05:54:40 | 73.9632 | 0.00688 | 13.9062 | 335.3238 | 47.0521 | 14.47182 | – |
| 2026 Apr 21 17:57 | 2026 Apr 19 05:54:40 | 73.9632 | 0.00688 | 13.9062 | 335.3238 | 47.0521 | 14.47182 | – |
| 2026 Apr 20 17:57 | 2026 Apr 19 05:54:40 | 73.9632 | 0.00688 | 13.9062 | 335.3238 | 47.0521 | 14.47182 | – |
| 2026 Apr 19 17:58 | 2026 Apr 19 05:54:40 | 73.9632 | 0.00688 | 13.9062 | 335.3238 | 47.0521 | 14.47182 | – |
| 2026 Apr 18 17:56 | 2026 Apr 12 07:59:42 | 73.9625 | 0.00684 | 14.7715 | 350.3343 | 47.0521 | 14.47182 | – |
| 2026 Apr 16 17:57 | 2026 Apr 12 07:59:42 | 73.9625 | 0.00684 | 14.7715 | 350.3343 | 47.0521 | 14.47182 | – |
| 2026 Apr 14 17:57 | 2026 Apr 12 07:59:42 | 73.9625 | 0.00684 | 14.7715 | 350.3343 | 47.0521 | 14.47182 | – |
| 2026 Apr 13 17:57 | 2026 Apr 12 07:59:42 | 73.9625 | 0.00684 | 14.7715 | 350.3343 | 47.0521 | 14.47182 | – |
| 2026 Apr 12 17:57 | 2026 Apr 07 08:31:57 | 73.9639 | 0.00683 | 15.3945 | 1.2159 | 47.0521 | 14.47182 | – |
| 2026 Apr 11 17:57 | 2026 Apr 07 08:31:57 | 73.9639 | 0.00683 | 15.3945 | 1.2159 | 47.0521 | 14.47182 | – |
| 2026 Apr 10 17:58 | 2026 Apr 07 08:31:57 | 73.9639 | 0.00683 | 15.3945 | 1.2159 | 47.0521 | 14.47182 | – |
| 2026 Apr 09 18:01 | 2026 Apr 07 08:31:57 | 73.9639 | 0.00683 | 15.3945 | 1.2159 | 47.0521 | 14.47182 | – |
| 2026 Apr 08 17:57 | 2026 Apr 07 08:31:57 | 73.9639 | 0.00683 | 15.3945 | 1.2159 | 47.0521 | 14.47182 | – |
| 2026 Apr 07 17:57 | 2026 Apr 02 02:25:43 | 73.9626 | 0.00682 | 16.0521 | 12.6519 | 47.0521 | 14.47182 | – |